RAM1283 GMAD-LPMA

Flight info

Callsign RAM1283
Flight time 1h 13m
Altitude 36000
Route MOGBA DCT LEPRU DCT EKNOT
Aircraft B738/M-SDE2E3FGHIRWXY/LB1

Departure

Time 2026-04-18 08:34
Airport Al Massira Airport (GMAD)

Arrival

Time 2026-04-18 09:47
Airport Cristiano Ronaldo International Airport (LPMA)
Time Latitude Longitude Altitude Speed Heading
2026-04-18 07:59 30.32878 -9.40997 230 ft 0 kts
2026-04-18 08:00 30.32881 -9.40997 230 ft 0 kts
2026-04-18 08:25 30.32860 -9.40998 230 ft 4 kts
2026-04-18 08:25 30.32834 -9.40998 230 ft 4 kts 341°
2026-04-18 08:25 30.32814 -9.40982 231 ft 4 kts 300°
2026-04-18 08:26 30.32807 -9.40958 233 ft 2 kts 271°
2026-04-18 08:26 30.32807 -9.40931 234 ft 2 kts 271°
2026-04-18 08:26 30.32807 -9.40930 234 ft 0 kts 271°
2026-04-18 08:28 30.32807 -9.40936 234 ft 2 kts 271°
2026-04-18 08:28 30.32807 -9.40965 232 ft 5 kts 271°
2026-04-18 08:28 30.32809 -9.41020 231 ft 9 kts 271°
2026-04-18 08:29 30.32810 -9.41102 230 ft 12 kts 271°
2026-04-18 08:29 30.32812 -9.41205 230 ft 14 kts 272°
2026-04-18 08:29 30.32816 -9.41330 230 ft 17 kts 272°
2026-04-18 08:29 30.32820 -9.41474 230 ft 19 kts 271°
2026-04-18 08:30 30.32822 -9.41634 230 ft 21 kts 272°
2026-04-18 08:30 30.32828 -9.41809 230 ft 23 kts 272°
2026-04-18 08:30 30.32831 -9.42000 230 ft 25 kts 270°
2026-04-18 08:30 30.32820 -9.42168 232 ft 19 kts 231°
2026-04-18 08:31 30.32692 -9.42188 230 ft 20 kts 181°
2026-04-18 08:31 30.32547 -9.42191 230 ft 22 kts 181°
2026-04-18 08:31 30.32476 -9.42314 230 ft 22 kts 274°
2026-04-18 08:31 30.32480 -9.42489 230 ft 21 kts 271°
2026-04-18 08:32 30.32486 -9.42660 230 ft 21 kts 271°
2026-04-18 08:32 30.32441 -9.42802 231 ft 21 kts 190°
2026-04-18 08:32 30.32305 -9.42768 231 ft 16 kts 123°
2026-04-18 08:32 30.32299 -9.42722 231 ft 0 kts 87°
2026-04-18 08:33 30.32299 -9.42714 231 ft 8 kts 88°
2026-04-18 08:33 30.32292 -9.42360 231 ft 81 kts 91°
2026-04-18 08:34 30.32270 -9.41443 231 ft 144 kts 92°
2026-04-18 08:34 30.32246 -9.40198 759 ft 155 kts 91°
2026-04-18 08:34 30.32199 -9.38927 1459 ft 159 kts 90°
2026-04-18 08:34 30.32066 -9.37624 2107 ft 172 kts 102°
2026-04-18 08:35 30.31525 -9.36236 2417 ft 207 kts 121°
2026-04-18 08:35 30.30497 -9.34956 2633 ft 234 kts 141°
2026-04-18 08:35 30.28995 -9.34109 3086 ft 248 kts 163°
2026-04-18 08:35 30.27208 -9.33998 3447 ft 269 kts 189°
2026-04-18 08:36 30.25464 -9.34848 4119 ft 277 kts 216°
2026-04-18 08:36 30.24198 -9.36505 5047 ft 278 kts 243°
2026-04-18 08:36 30.23680 -9.38645 5876 ft 280 kts 268°
2026-04-18 08:36 30.23763 -9.40894 6726 ft 281 kts 275°
2026-04-18 08:37 30.23930 -9.43138 7621 ft 279 kts 275°
2026-04-18 08:37 30.24076 -9.45374 8538 ft 278 kts 274°
2026-04-18 08:37 30.24193 -9.47618 9412 ft 281 kts 273°
2026-04-18 08:37 30.24286 -9.49882 10240 ft 283 kts 272°
2026-04-18 08:38 30.24362 -9.52224 10616 ft 303 kts 271°
2026-04-18 08:38 30.24431 -9.54761 10796 ft 327 kts 271°
2026-04-18 08:38 30.24497 -9.57492 10960 ft 350 kts 271°
2026-04-18 08:38 30.24563 -9.60374 11289 ft 365 kts 271°
2026-04-18 08:39 30.24627 -9.63334 11902 ft 371 kts 271°
2026-04-18 08:39 30.24689 -9.66289 12607 ft 373 kts 271°
2026-04-18 08:39 30.24805 -9.69298 13250 ft 377 kts 277°
2026-04-18 08:39 30.25640 -9.72193 13825 ft 385 kts 298°
2026-04-18 08:40 30.27320 -9.74608 14407 ft 391 kts 318°
2026-04-18 08:40 30.29652 -9.76268 14975 ft 397 kts 337°
2026-04-18 08:40 30.32359 -9.76955 15535 ft 402 kts 355°
2026-04-18 08:40 30.35131 -9.77436 16043 ft 406 kts 341°
2026-04-18 08:41 30.37836 -9.78419 16573 ft 411 kts 350°
2026-04-18 08:41 30.40688 -9.78320 17132 ft 413 kts 14°
2026-04-18 08:41 30.43444 -9.77364 17746 ft 415 kts 15°
2026-04-18 08:41 30.46292 -9.76712 18259 ft 419 kts
2026-04-18 08:42 30.49206 -9.76384 18737 ft 422 kts
2026-04-18 08:42 30.52143 -9.76633 19140 ft 427 kts 344°
2026-04-18 08:42 30.54847 -9.78037 19624 ft 429 kts 326°
2026-04-18 08:42 30.57080 -9.80313 20125 ft 430 kts 309°
2026-04-18 08:43 30.58677 -9.83232 20566 ft 431 kts 291°
2026-04-18 08:43 30.59731 -9.86492 21026 ft 432 kts 288°
2026-04-18 08:43 30.60726 -9.89800 21452 ft 436 kts 288°
2026-04-18 08:43 30.61712 -9.93140 21868 ft 439 kts 287°
2026-04-18 08:44 30.62707 -9.96509 22289 ft 442 kts 287°
2026-04-18 08:44 30.63702 -9.99844 22698 ft 444 kts 288°
2026-04-18 08:44 30.64739 -10.03287 23102 ft 447 kts 288°
2026-04-18 08:44 30.65762 -10.06659 23484 ft 450 kts 288°
2026-04-18 08:45 30.66821 -10.10134 23822 ft 453 kts 288°
2026-04-18 08:45 30.67860 -10.13538 24181 ft 453 kts 288°
2026-04-18 08:45 30.68916 -10.16993 24559 ft 454 kts 288°
2026-04-18 08:45 30.69973 -10.20455 24927 ft 455 kts 288°
2026-04-18 08:46 30.71030 -10.23925 25273 ft 456 kts 288°
2026-04-18 08:46 30.72089 -10.27408 25603 ft 458 kts 288°
2026-04-18 08:46 30.73149 -10.30900 25934 ft 459 kts 288°
2026-04-18 08:46 30.74212 -10.34401 26260 ft 460 kts 288°
2026-04-18 08:47 30.75277 -10.37910 26578 ft 461 kts 288°
2026-04-18 08:47 30.76344 -10.41429 26901 ft 462 kts 288°
2026-04-18 08:47 30.77412 -10.44961 27203 ft 463 kts 288°
2026-04-18 08:47 30.78480 -10.48496 27497 ft 464 kts 288°
2026-04-18 08:48 30.79550 -10.52039 27798 ft 465 kts 288°
2026-04-18 08:48 30.80619 -10.55585 28152 ft 464 kts 288°
2026-04-18 08:48 30.81685 -10.59121 28627 ft 461 kts 288°
2026-04-18 08:48 30.82738 -10.62616 29135 ft 457 kts 288°
2026-04-18 08:49 30.83784 -10.66092 29620 ft 454 kts 287°
2026-04-18 08:49 30.84825 -10.69561 30045 ft 452 kts 287°
2026-04-18 08:49 30.85860 -10.73012 30373 ft 451 kts 287°
2026-04-18 08:49 30.86879 -10.76414 30683 ft 451 kts 287°
2026-04-18 08:50 30.87911 -10.79864 31004 ft 450 kts 287°
2026-04-18 08:50 30.88936 -10.83296 31344 ft 448 kts 287°
2026-04-18 08:50 30.89958 -10.86718 31684 ft 447 kts 287°
2026-04-18 08:50 30.90976 -10.90132 31990 ft 446 kts 287°
2026-04-18 08:51 30.91991 -10.93540 32314 ft 445 kts 287°
2026-04-18 08:51 30.93003 -10.96939 32629 ft 444 kts 287°
2026-04-18 08:51 30.94010 -11.00327 32960 ft 442 kts 287°
2026-04-18 08:51 30.95014 -11.03709 33270 ft 441 kts 287°
2026-04-18 08:52 30.96015 -11.07083 33563 ft 440 kts 287°
2026-04-18 08:52 30.97013 -11.10451 33868 ft 439 kts 287°
2026-04-18 08:52 30.98009 -11.13819 34159 ft 438 kts 286°
2026-04-18 08:52 30.99000 -11.17168 34418 ft 437 kts 286°
2026-04-18 08:53 30.99988 -11.20513 34661 ft 436 kts 286°
2026-04-18 08:53 31.00972 -11.23852 34907 ft 435 kts 286°
2026-04-18 08:53 31.01954 -11.27182 35153 ft 434 kts 286°
2026-04-18 08:53 31.02919 -11.30462 35386 ft 433 kts 286°
2026-04-18 08:54 31.03895 -11.33779 35627 ft 432 kts 286°
2026-04-18 08:54 31.04880 -11.37133 35853 ft 431 kts 286°
2026-04-18 08:54 31.05838 -11.40400 36070 ft 431 kts 286°
2026-04-18 08:54 31.06806 -11.43701 36293 ft 430 kts 286°
2026-04-18 08:55 31.07770 -11.46995 36521 ft 429 kts 286°
2026-04-18 08:55 31.08734 -11.50292 36716 ft 428 kts 286°
2026-04-18 08:55 31.09697 -11.53588 36898 ft 428 kts 286°
2026-04-18 08:55 31.10656 -11.56874 37120 ft 428 kts 286°
2026-04-18 08:56 31.11613 -11.60156 37302 ft 427 kts 286°
2026-04-18 08:56 31.12568 -11.63433 37492 ft 426 kts 286°
2026-04-18 08:56 31.13521 -11.66710 37663 ft 426 kts 286°
2026-04-18 08:56 31.14472 -11.69984 37842 ft 426 kts 286°
2026-04-18 08:57 31.16372 -11.76533 38021 ft 427 kts 286°
2026-04-18 08:57 31.18277 -11.83114 38037 ft 427 kts 286°
2026-04-18 08:58 31.20158 -11.89624 38037 ft 425 kts 286°
2026-04-18 08:58 31.22041 -11.96155 38036 ft 424 kts 286°
2026-04-18 08:59 31.23916 -12.02671 38037 ft 423 kts 286°
2026-04-18 08:59 31.25785 -12.09186 38040 ft 422 kts 286°
2026-04-18 09:00 31.27649 -12.15693 38045 ft 422 kts 286°
2026-04-18 09:00 31.29511 -12.22207 38047 ft 423 kts 286°
2026-04-18 09:01 31.31374 -12.28743 38046 ft 424 kts 286°
2026-04-18 09:01 31.33226 -12.35250 38050 ft 424 kts 285°
2026-04-18 09:02 31.35089 -12.41812 38049 ft 425 kts 285°
2026-04-18 09:02 31.36955 -12.48399 38047 ft 426 kts 285°
2026-04-18 09:03 31.38508 -12.53890 38040 ft 427 kts 285°
2026-04-18 09:03 31.40372 -12.60494 38048 ft 428 kts 285°
2026-04-18 09:04 31.42234 -12.67109 38052 ft 428 kts 285°
2026-04-18 09:04 31.44097 -12.73741 38044 ft 428 kts 285°
2026-04-18 09:05 31.45956 -12.80373 38044 ft 429 kts 285°
2026-04-18 09:05 31.47813 -12.87012 38046 ft 429 kts 285°
2026-04-18 09:06 31.49665 -12.93648 38048 ft 428 kts 285°
2026-04-18 09:06 31.51513 -13.00286 38048 ft 428 kts 285°
2026-04-18 09:07 31.53347 -13.06887 38058 ft 428 kts 285°
2026-04-18 09:07 31.55187 -13.13526 38059 ft 428 kts 285°
2026-04-18 09:08 31.57026 -13.20175 38055 ft 428 kts 285°
2026-04-18 09:08 31.58857 -13.26811 38058 ft 428 kts 285°
2026-04-18 09:09 31.60687 -13.33458 38071 ft 428 kts 285°
2026-04-18 09:09 31.62515 -13.40113 38074 ft 428 kts 285°
2026-04-18 09:10 31.64339 -13.46769 38062 ft 429 kts 285°
2026-04-18 09:10 31.66160 -13.53431 38066 ft 429 kts 285°
2026-04-18 09:11 31.67982 -13.60108 38067 ft 429 kts 285°
2026-04-18 09:11 31.69799 -13.66784 38070 ft 429 kts 285°
2026-04-18 09:12 31.71612 -13.73464 38074 ft 430 kts 285°
2026-04-18 09:12 31.73426 -13.80159 38068 ft 430 kts 285°
2026-04-18 09:13 31.75228 -13.86825 38085 ft 431 kts 284°
2026-04-18 09:13 31.77038 -13.93536 38075 ft 431 kts 284°
2026-04-18 09:14 31.78842 -14.00245 38077 ft 431 kts 284°
2026-04-18 09:14 31.80651 -14.06984 38091 ft 431 kts 284°
2026-04-18 09:15 31.82457 -14.13729 38081 ft 432 kts 284°
2026-04-18 09:15 31.84257 -14.20468 38085 ft 432 kts 284°
2026-04-18 09:16 31.86043 -14.27168 38083 ft 432 kts 284°
2026-04-18 09:16 31.87848 -14.33956 38083 ft 432 kts 284°
2026-04-18 09:17 31.89622 -14.40647 38086 ft 432 kts 284°
2026-04-18 09:17 31.91409 -14.47401 38087 ft 432 kts 284°
2026-04-18 09:18 31.93191 -14.54151 38091 ft 432 kts 284°
2026-04-18 09:18 31.94972 -14.60914 38091 ft 432 kts 284°
2026-04-18 09:19 31.96746 -14.67668 38088 ft 432 kts 284°
2026-04-18 09:19 31.98516 -14.74422 38089 ft 432 kts 284°
2026-04-18 09:20 32.00183 -14.81170 38084 ft 430 kts 277°
2026-04-18 09:20 32.01071 -14.88116 38093 ft 428 kts 275°
2026-04-18 09:21 32.01877 -14.95069 38090 ft 428 kts 275°
2026-04-18 09:21 32.02701 -15.02025 38093 ft 429 kts 275°
2026-04-18 09:22 32.03121 -15.05516 37781 ft 434 kts 275°
2026-04-18 09:22 32.03549 -15.09058 37287 ft 435 kts 275°
2026-04-18 09:22 32.03976 -15.12578 36707 ft 433 kts 275°
2026-04-18 09:22 32.04401 -15.16082 36115 ft 432 kts 275°
2026-04-18 09:23 32.04825 -15.19585 35476 ft 432 kts 275°
2026-04-18 09:23 32.05248 -15.23095 34839 ft 433 kts 275°
2026-04-18 09:23 32.05671 -15.26614 34188 ft 434 kts 275°
2026-04-18 09:23 32.06094 -15.30147 33424 ft 436 kts 275°
2026-04-18 09:24 32.06518 -15.33693 32694 ft 437 kts 275°
2026-04-18 09:24 32.06943 -15.37254 31975 ft 438 kts 275°
2026-04-18 09:24 32.07366 -15.40811 31257 ft 439 kts 275°
2026-04-18 09:24 32.07784 -15.44336 30526 ft 441 kts 275°
2026-04-18 09:25 32.08209 -15.47917 29855 ft 440 kts 275°
2026-04-18 09:25 32.08629 -15.51469 29247 ft 435 kts 275°
2026-04-18 09:25 32.09045 -15.54987 28711 ft 430 kts 275°
2026-04-18 09:25 32.09454 -15.58463 28157 ft 426 kts 275°
2026-04-18 09:26 32.09858 -15.61902 27623 ft 421 kts 275°
2026-04-18 09:26 32.10257 -15.65310 27081 ft 418 kts 275°
2026-04-18 09:26 32.10652 -15.68689 26561 ft 414 kts 275°
2026-04-18 09:26 32.11042 -15.72040 26041 ft 411 kts 275°
2026-04-18 09:27 32.11428 -15.75366 25531 ft 408 kts 276°
2026-04-18 09:27 32.11810 -15.78669 25020 ft 405 kts 275°
2026-04-18 09:27 32.12190 -15.81951 24519 ft 403 kts 275°
2026-04-18 09:27 32.12567 -15.85226 23978 ft 401 kts 275°
2026-04-18 09:28 32.12941 -15.88483 23419 ft 400 kts 275°
2026-04-18 09:28 32.13315 -15.91724 22850 ft 397 kts 276°
2026-04-18 09:28 32.13683 -15.94941 22312 ft 394 kts 276°
2026-04-18 09:28 32.14047 -15.98133 21799 ft 391 kts 275°
2026-04-18 09:29 32.14408 -16.01299 21288 ft 388 kts 275°
2026-04-18 09:29 32.14765 -16.04442 20782 ft 385 kts 275°
2026-04-18 09:29 32.15121 -16.07569 20300 ft 382 kts 275°
2026-04-18 09:29 32.15468 -16.10636 19811 ft 380 kts 275°
2026-04-18 09:30 32.15815 -16.13718 19320 ft 378 kts 275°
2026-04-18 09:30 32.16162 -16.16784 18829 ft 376 kts 275°
2026-04-18 09:30 32.16507 -16.19848 18320 ft 375 kts 275°
2026-04-18 09:30 32.16850 -16.22893 17765 ft 373 kts 275°
2026-04-18 09:31 32.17402 -16.25876 17236 ft 375 kts 290°
2026-04-18 09:31 32.18776 -16.28499 16757 ft 377 kts 310°
2026-04-18 09:31 32.20796 -16.30466 16292 ft 379 kts 327°
2026-04-18 09:31 32.23240 -16.31624 15828 ft 379 kts 341°
2026-04-18 09:32 32.25770 -16.32479 15351 ft 377 kts 342°
2026-04-18 09:32 32.28294 -16.33282 14874 ft 376 kts 342°
2026-04-18 09:32 32.30813 -16.34077 14409 ft 374 kts 342°
2026-04-18 09:32 32.33318 -16.34879 13933 ft 372 kts 342°
2026-04-18 09:33 32.35620 -16.35627 13447 ft 371 kts 341°
2026-04-18 09:33 32.38101 -16.36444 12952 ft 369 kts 341°
2026-04-18 09:33 32.40542 -16.37254 12472 ft 367 kts 341°
2026-04-18 09:33 32.43012 -16.38077 12002 ft 365 kts 341°
2026-04-18 09:34 32.45421 -16.38882 11540 ft 363 kts 341°
2026-04-18 09:34 32.47843 -16.39693 11093 ft 361 kts 341°
2026-04-18 09:34 32.50221 -16.40488 10938 ft 349 kts 341°
2026-04-18 09:34 32.52529 -16.41260 10774 ft 339 kts 341°
2026-04-18 09:35 32.54766 -16.42009 10623 ft 330 kts 341°
2026-04-18 09:35 32.56943 -16.42739 10480 ft 321 kts 341°
2026-04-18 09:35 32.59067 -16.43452 10347 ft 312 kts 340°
2026-04-18 09:35 32.61122 -16.44142 10220 ft 304 kts 340°
2026-04-18 09:36 32.63133 -16.44818 10071 ft 297 kts 340°
2026-04-18 09:36 32.65115 -16.45486 9764 ft 296 kts 340°
2026-04-18 09:36 32.67087 -16.46152 9480 ft 294 kts 340°
2026-04-18 09:36 32.69049 -16.46813 9195 ft 292 kts 340°
2026-04-18 09:37 32.70998 -16.47470 8916 ft 290 kts 340°
2026-04-18 09:37 32.72934 -16.48122 8630 ft 288 kts 341°
2026-04-18 09:37 32.74859 -16.48770 8351 ft 287 kts 341°
2026-04-18 09:37 32.76745 -16.49406 8086 ft 285 kts 341°
2026-04-18 09:38 32.78601 -16.50172 7798 ft 280 kts 326°
2026-04-18 09:38 32.80051 -16.51612 7637 ft 267 kts 309°
2026-04-18 09:38 32.81272 -16.53272 7348 ft 266 kts 306°
2026-04-18 09:38 32.82462 -16.54960 7079 ft 266 kts 306°
2026-04-18 09:39 32.83544 -16.56705 6914 ft 256 kts 291°
2026-04-18 09:39 32.83894 -16.58695 6794 ft 241 kts 264°
2026-04-18 09:39 32.83513 -16.60583 6794 ft 233 kts 244°
2026-04-18 09:39 32.82594 -16.62174 6479 ft 237 kts 224°
2026-04-18 09:40 32.81234 -16.63316 6092 ft 241 kts 206°
2026-04-18 09:40 32.79651 -16.63981 5805 ft 242 kts 197°
2026-04-18 09:40 32.78059 -16.64575 5488 ft 244 kts 198°
2026-04-18 09:40 32.76439 -16.65226 5168 ft 246 kts 198°
2026-04-18 09:41 32.74811 -16.65888 4873 ft 247 kts 198°
2026-04-18 09:41 32.73191 -16.66548 4600 ft 245 kts 197°
2026-04-18 09:41 32.71631 -16.67183 4415 ft 228 kts 197°
2026-04-18 09:41 32.70183 -16.67772 4274 ft 212 kts 197°
2026-04-18 09:42 32.68840 -16.68318 4062 ft 200 kts 196°
2026-04-18 09:42 32.67530 -16.68848 3819 ft 196 kts 196°
2026-04-18 09:42 32.66236 -16.69370 3589 ft 199 kts 195°
2026-04-18 09:42 32.64920 -16.69903 3355 ft 199 kts 194°
2026-04-18 09:43 32.63622 -16.70462 3136 ft 198 kts 201°
2026-04-18 09:43 32.62493 -16.71289 2906 ft 191 kts 217°
2026-04-18 09:43 32.61607 -16.72464 2747 ft 190 kts 235°
2026-04-18 09:43 32.61048 -16.73845 2582 ft 183 kts 252°
2026-04-18 09:44 32.60817 -16.75319 2331 ft 180 kts 269°
2026-04-18 09:44 32.60892 -16.76771 2108 ft 173 kts 283°
2026-04-18 09:44 32.61238 -16.78098 2013 ft 165 kts 299°
2026-04-18 09:44 32.61875 -16.79198 2010 ft 158 kts 319°
2026-04-18 09:45 32.62759 -16.79987 1692 ft 165 kts 337°
2026-04-18 09:45 32.63840 -16.80385 1254 ft 156 kts 359°
2026-04-18 09:45 32.64824 -16.80389 1082 ft 130 kts
2026-04-18 09:45 32.65686 -16.80382 928 ft 121 kts
2026-04-18 09:46 32.66582 -16.80310 781 ft 136 kts
2026-04-18 09:46 32.67463 -16.80094 661 ft 132 kts 27°
2026-04-18 09:46 32.68167 -16.79422 405 ft 128 kts 45°
2026-04-18 09:46 32.68741 -16.78660 216 ft 124 kts 39°
2026-04-18 09:47 32.69354 -16.77961 169 ft 126 kts 45°
2026-04-18 09:47 32.69891 -16.77330 195 ft 76 kts 47°
2026-04-18 09:47 32.70140 -16.77027 190 ft 44 kts 43°
2026-04-18 09:47 32.70329 -16.76835 186 ft 29 kts 21°
2026-04-18 09:48 32.70391 -16.76756 184 ft 8 kts 150°
2026-04-18 09:48 32.70344 -16.76789 202 ft 9 kts 230°
2026-04-18 09:48 32.70298 -16.76849 188 ft 11 kts 227°
2026-04-18 09:48 32.70236 -16.76923 188 ft 15 kts 224°
2026-04-18 09:49 32.70151 -16.77022 192 ft 20 kts 224°
2026-04-18 09:49 32.70080 -16.77105 196 ft 24 kts 224°
2026-04-18 09:49 32.69918 -16.77178 187 ft 29 kts 179°
2026-04-18 09:49 32.69740 -16.77292 173 ft 35 kts 227°
2026-04-18 09:50 32.69590 -16.77483 168 ft 32 kts 226°
2026-04-18 09:50 32.69451 -16.77656 168 ft 16 kts 225°
2026-04-18 09:50 32.69399 -16.77642 168 ft 4 kts 137°
2026-04-18 09:50 32.69385 -16.77626 168 ft 0 kts 137°